Location: Home
(42.5358°N, 72.7383°W)
Time: 09:30:21
(UTC-04:00)

A-11 Canister half - Pass Details

Date: 29 June 2022
Orbit: 1514 x 1685 km, 47.2° (Epoch: 15 August)

Event Time Altitude Azimuth Distance (km) Brightness Sun altitude
Rises 21:43:28 0° 204° (SSW) 4,915 11.4 -10.9°
Reaches altitude 10° 21:46:55 10° 197° (SSW) 3,937 10.9 -11.3°
Maximum altitude 21:55:55 38° 134° (SE) 2,385 9.5 -12.5°
Drops below altitude 10° 22:04:51 10° 71° (ENE) 3,918 10.9 -13.5°
Sets 22:08:15 0° 64° (ENE) 4,890 11.5 -13.9°
